MICROSAT-TD (43128 NORAD) Tracking and Keplerian Element Data

This shows tracking and keplerian element data for the satellite.

Feedback or suggestion? Click here.




ElementValue
Catalog43128
NameMICROSAT-TD
Epoch Orbit2996
Epoch Day203.15370472
Epoch Year2018
RAAN261.8633
Inclination96.8559
Eccentricity0.0011415
Argument of Perigee333.5632
Mean Anonmoly26.5048
Mean Motion15.705458
Decay Rate0.00018902
L11 43128U 18004T 18203.15370472 .00018902 00000-0 15430-3 0 9990
L22 43128 96.8559 261.8633 0011415 333.5632 26.5048 15.70545800 29964

Live tracking and technical data element details for MICROSAT-TD (NORAD 43128). MICROSAT-TD can be tracked NOW for your location showing map with azimuth and elevation plus other details from your city location.

Track the satellite on the map from your city or location and see movement details for azimuth, elevation, latitude, longitude, range, height, and movement on the map or in text.







IsCatalogInMostPopularTable: catalog: 43128, numindb: 64
Update: records affected: 1



GetName: 43128 MICROSAT-TD

Hit Count: updated at: Mon, 23 Jul 2018 07:50:00 GMT